Vertical_Velocity
-0 1 1 -2 6 0 -10 -20 4 21 -10 -5 3 -10 22 4 3 -5 -3 -12 -8 11 -1 0 0 -1 -2 -3 -3 -3 -4 -2 -2 -3 -1 -2 -2 -1 -1 -1 -1 -2 -1 -1 -1 -1 -1 -0 -0
2 2 -5 0 3 11 -19 35 59 -11 -8 -12 -5 -9 -1 -9 4 2 5 -15 -4 2 -2 1 -1 -0 -1 -4 -4 -3 -3 -3 -2 -2 -1 -1 -2 -2 -1 -0 -1 -3 -2 -1 -0 -0 -0 -0 -1
3 2 1 -5 1 -6 -16 44 -10 8 5 -12 -3 -18 2 -11 -1 2 6 -7 -8 3 -0 0 1 -1 0 -2 -4 -1 -4 -4 -0 -1 -2 -3 -1 -2 -2 -1 -1 -1 -1 -3 -0 -1 -0 -1 -1
1 -6 -8 -8 -10 -9 25 24 27 -15 -21 -20 -6 14 -7 1 2 -6 3 -2 -9 5 1 -0 1 -3 -1 -2 -3 -3 -2 -3 -2 0 -2 -3 -2 -0 -1 -1 -2 -0 -2 -1 -1 -1 -2 -0 0
-2 0 4 2 -12 -21 -11 45 -16 -10 -11 28 -6 10 -6 -9 -8 18 -2 -5 -7 1 7 2 -2 -2 -2 0 -2 -1 -2 -2 -2 -3 -1 -0 -2 -2 -2 -1 -1 -1 -1 -2 -0 -0 0 1 1
-2 7 1 -2 -3 32 37 -3 -13 -11 -21 -7 -4 -14 12 3 -1 7 1 -0 -5 -5 6 -0 0 -1 -0 -2 -2 -3 -2 -1 -3 -3 -2 -1 -2 -2 -1 -1 0 -1 -2 -2 -1 -0 -1 -1 -0
2 1 0 12 5 -12 5 31 24 -11 11 16 27 -15 5 -4 -7 7 -0 -2 -11 4 1 1 2 0 -0 -1 -3 -3 -1 -2 -1 -3 -2 -2 -1 -0 -1 -1 -0 -2 -1 -0 -2 -0 0 -0 1
7 2 -2 -6 -12 -24 -26 -4 -12 -6 -23 -14 24 -22 7 -16 4 2 2 -2 1 0 0 -2 -0 1 0 -2 -2 -2 -2 -2 -2 -2 -2 -3 -1 -1 1 0 -1 -1 -1 -1 -2 -2 -0 -0 1
-5 9 -5 -6 2 2 19 20 -10 9 -20 14 -1 -1 -9 1 2 -7 6 -0 1 -3 2 -1 2 2 0 0 -1 -3 -2 -1 -3 -1 -1 -3 -3 -1 -1 1 0 -2 -1 -1 -0 -2 -1 -1 -1
13 6 -9 5 21 21 -9 3 16 -2 21 -12 4 -13 -15 5 8 -5 3 3 1 1 2 1 1 -1 3 0 -1 -3 -1 -2 -1 -1 0 -3 -3 0 -4 -2 -0 0 -0 -0 -1 -0 -2 -2 -2
-7 2 1 -6 6 -4 -11 -9 -11 16 5 3 3 28 -15 -1 6 1 -3 -1 2 -4 -3 -4 3 -2 -1 3 2 -2 -2 -2 -1 -0 -2 -1 -2 -3 -0 -1 -3 -1 -0 -0 -1 -0 -0 -1 -0
20 7 17 -9 -5 -2 9 2 8 -4 -25 12 2 36 -10 -9 -1 1 -3 6 2 1 1 0 -2 -2 -3 5 -1 1 -1 -3 1 -1 -4 1 -2 -2 -4 -0 0 -3 -1 -1 1 -1 -0 -1 -1
5 0 3 -8 -10 1 6 -1 -16 -9 -8 -10 3 50 -8 -5 -5 6 -0 -7 1 -2 -1 1 2 2 -3 7 -1 0 -2 -0 1 1 -1 -2 1 0 -3 -1 -2 1 -1 -1 -1 -0 -1 0 -2
1 -3 -13 -7 -13 -5 4 -7 25 -11 1 -10 -3 -12 26 -7 -8 0 -2 -5 -1 1 -2 2 -1 6 -3 0 3 2 -2 1 -2 1 0 -2 1 -1 2 -2 -1 -1 -2 -0 -1 -2 1 -1 -1
6 11 3 -4 -0 -11 2 0 3 -11 -5 -13 -2 6 -5 10 -20 -15 6 -8 -2 -0 8 -1 3 4 1 1 -0 -0 -0 -0 -2 2 1 0 1 -1 1 2 -2 -1 0 -3 -2 -1 -0 1 -1
-5 4 -1 -14 2 -14 25 -30 -16 8 35 13 2 -14 3 10 -3 -8 -10 -4 1 -7 -1 4 2 3 0 1 -2 3 1 -3 -0 -1 2 1 2 -1 0 -1 -0 1 -2 -0 -2 -1 -1 -1 -0
-6 -10 -2 -16 -5 -9 20 -4 -5 -2 -9 -9 2 27 3 6 4 -2 -13 -6 6 -2 -1 5 5 4 10 5 1 5 -3 6 -3 2 -0 -0 3 -1 -1 -1 2 -1 0 0 -0 -2 -1 -2 -2
-5 8 9 9 -7 27 27 -11 -18 21 -37 26 -12 -20 -9 21 19 -5 1 -14 -1 3 -6 5 -1 -1 2 1 3 -0 -3 -0 -5 7 0 -0 1 2 -0 -2 3 0 -2 0 -0 -2 -3 -1 -1
-0 -0 -3 -15 -23 9 -4 -3 2 -2 30 -3 -3 19 -3 -17 -12 47 6 -2 -8 3 -14 -1 6 6 4 2 6 -0 8 2 1 2 -0 5 2 -1 -2 2 -0 -0 -0 1 0 1 -1 -2 -0
1 4 -7 -18 -8 29 7 -15 -10 -13 -12 -1 13 -10 -5 1 4 8 10 -6 -15 15 -4 -12 6 1 3 2 3 4 7 2 4 5 0 7 3 1 -2 4 -1 -0 -1 1 -0 -1 -0 0 -1
-0 12 -11 -2 2 -14 15 -30 -17 -13 -12 -26 -10 -10 7 3 -2 8 39 -9 0 3 -6 -10 4 1 4 7 8 3 5 -1 -7 -5 2 1 2 4 1 3 -1 -3 3 -1 1 0 1 -1 0
-10 15 15 8 19 -5 21 -31 -5 -11 11 25 3 -0 3 22 26 23 52 11 -14 -1 8 -1 3 3 4 1 3 -1 10 4 5 2 8 3 6 5 -1 2 -0 1 1 -1 -1 -1 -0 1 -1
-19 17 -1 5 2 22 -18 22 -84 -3 -16 -1 42 -0 2 7 -5 -0 17 7 15 13 -9 -3 3 -2 1 4 3 2 7 4 2 -3 1 -1 3 4 0 1 2 0 -2 1 -1 -1 -1 -1 0
-2 2 -7 -4 6 6 -24 21 -59 6 11 29 7 5 3 -5 -1 -3 5 22 -5 11 5 1 -7 -0 1 8 3 0 3 3 4 2 1 0 4 2 2 1 2 -1 -0 -1 0 -2 1 -1 -0
21 3 -5 1 13 -12 4 26 -33 3 22 9 15 0 1 6 9 10 4 12 4 24 -2 1 2 3 1 3 3 2 1 3 4 3 -1 5 8 -1 4 5 11 -1 2 5 3 -0 -0 1 -0
2 6 5 1 1 1 -8 -3 7 0 2 4 12 15 3 5 3 6 7 15 8 5 3 -9 -2 2 4 7 6 7 1 -0 4 -2 -1 4 6 10 6 4 8 1 5 4 4 3 0 -0 2
1 10 24 5 -7 7 -9 -23 6 22 -23 -15 -11 -1 -1 10 1 -0 4 4 21 8 2 2 2 2 -1 0 9 7 2 4 7 3 -3 -0 2 4 9 8 -5 -9 7 6 7 5 3 2 2
-1 -7 0 11 3 0 -8 -2 10 0 -6 -1 2 -10 -12 5 5 16 -5 1 3 6 2 3 4 7 -1 -0 3 6 7 4 2 2 -5 -0 6 -1 8 10 11 3 7 7 0 4 3 -1 5
-1 2 -3 -3 -1 4 -0 0 -9 3 2 -2 -1 2 -8 8 -11 10 7 -1 -1 5 5 0 5 8 7 -5 0 3 4 -2 -1 -3 -2 2 1 -2 6 5 1 -6 9 -6 -0 4 1 2 1
-11 17 0 2 1 -1 2 -9 -1 -6 -10 1 -6 -17 -9 -6 -23 -32 11 12 -0 -2 4 3 9 1 0 5 1 3 8 3 -1 -1 -0 -1 -1 2 4 1 2 4 7 8 0 4 5 6 1
Height
3142 3142 3143 3143 3149 3142 3136 3130 3127 3128 3128 3127 3125 3130 3132 3132 3135 3133 3134 3136 3139 3141 3144 3146 3147 3148 3149 3150 3151 3152 3152 3151 3153 3153 3154 3155 3156 3157 3158 3159 3160 3160 3161 3162 3162 3163 3163 3163 3163
3140 3141 3141 3143 3144 3139 3130 3125 3129 3127 3127 3129 3129 3130 3131 3129 3130 3130 3132 3134 3139 3140 3141 3144 3145 3146 3147 3149 3150 3151 3151 3151 3151 3152 3153 3154 3155 3155 3157 3157 3158 3159 3159 3160 3161 3162 3162 3163 3163
3139 3139 3142 3141 3139 3136 3131 3126 3127 3127 3126 3129 3131 3130 3132 3126 3129 3130 3131 3131 3137 3139 3140 3142 3143 3145 3146 3147 3149 3150 3150 3150 3150 3151 3152 3153 3153 3154 3154 3155 3156 3157 3158 3159 3160 3160 3161 3161 3162
3137 3138 3140 3136 3133 3132 3131 3128 3125 3127 3129 3130 3132 3132 3129 3126 3127 3129 3129 3130 3134 3137 3138 3139 3141 3143 3144 3145 3147 3148 3149 3149 3150 3150 3151 3152 3152 3152 3153 3153 3155 3156 3157 3157 3158 3159 3160 3160 3161
3136 3137 3137 3134 3132 3130 3129 3127 3124 3126 3129 3131 3130 3131 3127 3124 3124 3126 3128 3128 3130 3134 3136 3137 3139 3141 3142 3144 3145 3147 3147 3148 3149 3148 3149 3150 3150 3150 3151 3152 3153 3154 3156 3156 3157 3158 3158 3158 3159
3136 3138 3136 3132 3129 3126 3126 3123 3123 3126 3128 3128 3127 3129 3123 3124 3122 3124 3124 3125 3126 3130 3133 3134 3136 3138 3139 3141 3143 3144 3145 3146 3146 3147 3147 3147 3148 3149 3149 3151 3152 3154 3155 3156 3156 3157 3158 3158 3159
3135 3135 3132 3130 3127 3125 3124 3123 3119 3124 3126 3126 3125 3124 3120 3121 3120 3121 3120 3121 3121 3127 3129 3131 3133 3135 3137 3138 3140 3142 3143 3144 3144 3145 3146 3147 3147 3148 3149 3150 3151 3152 3153 3155 3156 3156 3157 3157 3158
3134 3134 3130 3128 3126 3124 3122 3120 3120 3121 3123 3121 3119 3120 3118 3119 3118 3118 3117 3119 3121 3125 3127 3128 3130 3132 3134 3136 3137 3139 3141 3142 3142 3143 3144 3145 3146 3146 3148 3149 3149 3151 3152 3153 3154 3155 3155 3156 3156
3131 3131 3126 3125 3124 3121 3120 3119 3118 3120 3120 3120 3119 3118 3114 3116 3114 3114 3116 3117 3119 3122 3123 3124 3126 3129 3130 3133 3134 3136 3137 3139 3140 3141 3142 3142 3144 3146 3146 3147 3149 3149 3150 3151 3152 3153 3153 3154 3154
3128 3126 3123 3122 3121 3118 3115 3116 3116 3118 3117 3116 3118 3112 3110 3114 3113 3112 3114 3115 3117 3119 3120 3121 3123 3125 3127 3129 3131 3132 3135 3136 3138 3138 3139 3141 3142 3144 3145 3145 3146 3147 3149 3149 3150 3151 3151 3151 3151
3122 3119 3120 3118 3118 3115 3113 3111 3112 3113 3113 3115 3115 3113 3104 3107 3108 3109 3110 3112 3113 3115 3116 3117 3119 3121 3123 3125 3127 3129 3131 3133 3134 3136 3136 3139 3140 3141 3142 3144 3145 3145 3146 3147 3147 3147 3148 3148 3148
3117 3115 3114 3114 3113 3112 3110 3109 3108 3108 3107 3110 3110 3110 3101 3101 3103 3104 3104 3106 3109 3111 3111 3112 3114 3116 3119 3121 3123 3125 3126 3129 3131 3133 3133 3136 3137 3139 3139 3140 3142 3143 3144 3144 3145 3145 3145 3144 3144
3110 3110 3109 3108 3107 3106 3105 3102 3100 3099 3100 3103 3104 3106 3097 3096 3098 3100 3099 3100 3102 3104 3106 3107 3109 3111 3112 3116 3118 3120 3122 3125 3127 3129 3130 3131 3133 3135 3137 3138 3138 3139 3140 3141 3141 3141 3141 3141 3140
3104 3102 3101 3101 3099 3099 3098 3095 3096 3094 3093 3094 3095 3096 3096 3088 3090 3091 3092 3092 3095 3099 3101 3102 3104 3106 3107 3110 3113 3115 3117 3121 3123 3125 3126 3127 3130 3131 3133 3134 3135 3136 3136 3137 3137 3137 3138 3138 3137
3099 3096 3093 3092 3093 3091 3091 3086 3086 3087 3086 3086 3088 3088 3089 3087 3082 3081 3085 3086 3088 3091 3093 3095 3097 3099 3100 3104 3107 3110 3113 3115 3118 3120 3122 3123 3125 3126 3128 3129 3131 3132 3132 3133 3133 3133 3133 3133 3133
3091 3091 3084 3084 3087 3085 3085 3075 3080 3081 3080 3079 3078 3079 3081 3080 3079 3078 3076 3079 3080 3082 3085 3087 3089 3092 3094 3098 3101 3105 3107 3109 3112 3115 3118 3119 3121 3122 3124 3125 3126 3127 3128 3129 3129 3129 3129 3129 3129
3085 3080 3081 3078 3080 3078 3078 3069 3073 3075 3074 3072 3072 3074 3075 3075 3073 3072 3071 3069 3073 3072 3077 3080 3082 3085 3088 3091 3094 3097 3100 3103 3105 3109 3112 3114 3116 3117 3118 3120 3121 3122 3123 3124 3124 3124 3125 3124 3124
3075 3073 3072 3071 3075 3072 3069 3066 3066 3067 3068 3067 3067 3068 3069 3069 3070 3067 3065 3063 3065 3063 3068 3073 3075 3078 3081 3084 3086 3089 3092 3095 3098 3103 3107 3108 3110 3111 3113 3114 3116 3117 3118 3119 3119 3119 3119 3119 3118
3073 3070 3066 3067 3070 3067 3063 3059 3061 3061 3060 3060 3061 3062 3062 3062 3064 3063 3059 3056 3059 3059 3057 3064 3067 3070 3074 3076 3078 3080 3085 3087 3092 3096 3100 3101 3103 3105 3106 3108 3109 3111 3112 3112 3113 3113 3113 3113 3113
3067 3063 3059 3058 3061 3063 3058 3050 3052 3054 3053 3053 3053 3053 3055 3056 3058 3059 3052 3050 3051 3055 3048 3056 3061 3064 3067 3070 3072 3074 3078 3080 3085 3088 3093 3094 3097 3098 3099 3102 3102 3103 3105 3106 3106 3107 3107 3107 3107
3056 3056 3059 3055 3055 3052 3050 3038 3043 3045 3046 3045 3043 3044 3046 3047 3049 3051 3049 3042 3043 3048 3042 3047 3053 3056 3059 3062 3063 3066 3069 3070 3074 3078 3083 3086 3089 3090 3092 3094 3095 3095 3098 3099 3099 3100 3100 3101 3100
3046 3056 3053 3050 3050 3042 3047 3028 3029 3038 3036 3037 3031 3035 3034 3039 3040 3042 3044 3033 3034 3040 3037 3040 3043 3046 3050 3052 3054 3057 3060 3063 3067 3071 3076 3079 3082 3083 3084 3085 3087 3088 3089 3091 3092 3092 3093 3094 3094
3040 3044 3044 3043 3043 3042 3024 3036 3005 3032 3030 3029 3031 3024 3022 3023 3025 3028 3031 3026 3030 3030 3029 3033 3035 3037 3041 3044 3046 3049 3052 3055 3058 3061 3067 3070 3073 3075 3076 3077 3078 3079 3080 3083 3083 3085 3085 3085 3087
3039 3038 3035 3035 3035 3037 3011 3033 3012 3027 3022 3021 3018 3017 3016 3017 3019 3022 3026 3024 3020 3024 3023 3024 3028 3029 3032 3036 3037 3039 3043 3046 3049 3053 3057 3060 3064 3066 3067 3068 3070 3070 3072 3073 3075 3076 3076 3076 3078
3039 3038 3035 3029 3024 3015 3021 3021 3018 3019 3014 3013 3010 3008 3009 3012 3013 3015 3018 3019 3020 3018 3017 3020 3022 3023 3025 3028 3030 3031 3033 3037 3039 3042 3046 3050 3054 3057 3059 3061 3060 3062 3063 3065 3066 3066 3067 3068 3069
3035 3037 3035 3021 3013 3015 3014 3014 3012 3012 3012 3015 3014 3012 3009 3007 3007 3006 3009 3014 3014 3011 3013 3011 3017 3016 3016 3019 3022 3024 3024 3028 3030 3030 3034 3039 3042 3045 3048 3049 3050 3053 3054 3055 3057 3058 3059 3060 3062
3033 3033 3031 3026 3021 3017 3012 3005 3008 3006 3006 3009 3007 3004 3009 3008 3006 3002 3003 3005 3007 3008 3009 3010 3009 3008 3008 3010 3013 3015 3016 3019 3021 3022 3024 3029 3032 3035 3035 3036 3037 3039 3043 3047 3048 3049 3050 3052 3053
3033 3032 3031 3026 3018 3007 3002 2999 3000 2998 3001 3005 3002 2998 3008 3003 3007 3005 3000 3001 3003 3004 3006 3006 3005 3004 3002 3003 3005 3007 3009 3011 3012 3012 3015 3018 3021 3023 3022 3021 3024 3026 3032 3036 3037 3039 3041 3042 3044
3027 3027 3028 3030 3024 3016 3008 3000 3003 3000 2997 2998 3001 3001 3005 2999 3000 3000 2998 2997 2999 3001 3002 3003 3003 3002 3001 2999 2999 3000 3002 3005 3006 3006 3005 3008 3011 3012 3014 3014 3015 3016 3017 3018 3022 3027 3030 3033 3034
3020 3021 3021 3024 3021 3020 3016 3006 2998 3002 3000 2997 2995 2998 2998 2997 2998 2999 2991 2993 2995 2995 2998 2997 2997 2997 2997 2997 2995 2995 2995 2997 3001 3002 3001 3000 3001 3004 3006 3005 3006 3008 3009 3011 3013 3017 3021 3023 3021